EW6604 Weather Reports


Display with metric or nautical units.
time (UTC)temp
F
wind
direction
speed
MPH
gust
MPH
rain 1hr
in
rain 24hr
in
rain mn
in
humidity
%
barometer
mb
20260904205709 87 119 12.0 18.0 0.00 0.00 0.00 84 1012.8
20260904205213 87 85 14.0 19.0 0.00 0.00 0.00 84 1012.8
20260904204718 87 82 12.0 19.0 0.00 0.00 0.00 86 1012.7
20260904204223 86 84 14.0 17.0 0.00 0.00 0.00 86 1012.9
20260904203708 86 84 12.0 16.0 0.00 0.00 0.00 86 1013.1
20260904203233 86 83 13.0 17.0 0.00 0.00 0.00 85 1013.1
20260904202716 86 75 15.0 17.0 0.00 0.00 0.00 85 1013.1
20260904202221 87 73 14.0 17.0 0.00 0.00 0.00 84 1013.0
20260904201709 87 78 15.0 17.0 0.00 0.00 0.00 83 1013.1
20260904201214 87 95 12.0 18.0 0.00 0.00 0.00 84 1013.2
20260904200730 87 80 14.0 19.0 0.00 0.00 0.00 83 1013.3
20260904200214 87 82 16.0 19.0 0.00 0.00 0.00 83 1013.4
20260904195718 88 81 14.0 17.0 0.00 0.00 0.00 82 1013.6
20260904195223 89 72 11.0 14.0 0.00 0.00 0.00 78 1013.5
20260904194708 90 83 8.0 13.0 0.00 0.00 0.00 72 1013.5
20260904194213 90 71 5.0 7.0 0.00 0.00 0.00 73 1013.6
20260904193716 90 66 6.0 7.0 0.00 0.00 0.00 73 1013.6
20260904193221 90 72 6.0 7.0 0.00 0.00 0.00 70 1013.5
20260904192706 90 71 4.0 6.0 0.00 0.00 0.00 71 1013.5
20260904192210 90 76 4.0 6.0 0.00 0.00 0.00 70 1013.6
20260904191719 91 140 3.0 6.0 0.00 0.00 0.00 73 1013.7
20260904191223 91 86 2.0 3.0 0.00 0.00 0.00 72 1013.7
20260904190708 91 99 1.0 4.0 0.00 0.00 0.00 73 1013.9
20260904190231 91 125 1.0 4.0 0.00 0.03 0.00 72 1013.9
20260904185714 91 106 1.0 3.0 0.00 0.03 0.00 72 1014.1
20260904185219 91 160 1.0 4.0 0.00 0.03 0.00 71 1014.1
20260904184724 91 182 2.0 5.0 0.00 0.03 0.00 70 1014.0
20260904184208 91 110 2.0 8.0 0.00 0.03 0.00 71 1014.1
20260904183713 91 83 2.0 8.0 0.00 0.03 0.00 71 1014.3
20260904183218 91 80 2.0 6.0 0.00 0.03 0.00 71 1014.3
20260904182722 91 196 2.0 5.0 0.00 0.03 0.00 70 1014.4
20260904182210 91 120 1.0 2.0 0.00 0.03 0.00 71 1014.5
20260904181712 90 92 1.0 7.0 0.00 0.03 0.00 71 1014.6
20260904181217 90 142 1.0 7.0 0.00 0.03 0.00 74 1014.6
20260904180714 90 77 5.0 7.0 0.00 0.03 0.00 72 1014.6
20260904180219 90 82 5.0 7.0 0.00 0.03 0.00 71 1014.7
20260904175744 91 72 5.0 10.0 0.00 0.03 0.00 70 1014.7
20260904175208 91 123 4.0 10.0 0.00 0.03 0.00 69 1014.8
20260904174713 91 56 1.0 4.0 0.00 0.03 0.00 72 1014.9
20260904174218 91 130 3.0 4.0 0.00 0.03 0.00 70 1014.9
20260904173723 91 107 2.0 4.0 0.00 0.03 0.00 71 1014.8
20260904173227 90 195 1.0 6.0 0.00 0.03 0.00 70 1014.9
20260904172711 90 288 2.0 7.0 0.00 0.03 0.00 71 1015.0
20260904172236 90 305 3.0 9.0 0.00 0.03 0.00 72 1015.0
20260904171719 91 271 4.0 9.0 0.00 0.03 0.00 72 1015.2
20260904170713 90 47 0.0 6.0 0.00 0.03 0.00 72 1015.4
20260904170218 90 82 0.0 6.0 0.00 0.03 0.00 73 1015.4
20260904165720 90 139 2.0 4.0 0.00 0.19 0.00 73 1015.4
20260904165223 89 114 0.0 3.0 0.00 0.19 0.00 73 1015.6
20260904164708 89 63 1.0 3.0 0.00 0.19 0.00 74 1015.6
20260904164213 89 78 1.0 5.0 0.00 0.19 0.00 74 1015.8
20260904163718 89 77 3.0 5.0 0.00 0.19 0.00 74 1015.8
20260904163222 89 354 1.0 3.0 0.00 0.19 0.00 74 1015.9
20260904162707 89 64 2.0 3.0 0.00 0.19 0.00 74 1015.9
20260904162217 89 55 1.0 3.0 0.00 0.19 0.00 74 1015.9
20260904161721 89 77 1.0 3.0 0.00 0.19 0.00 74 1015.9
20260904161205 88 132 2.0 7.0 0.00 0.19 0.00 75 1016.0
20260904160741 88 279 5.0 7.0 0.00 0.19 0.00 75 1016.0
20260904160220 88 273 1.0 6.0 0.00 0.19 0.00 76 1015.9
20260904155705 88 201 0.0 4.0 0.00 0.81 0.00 76 1016.0
20260904155211 88 284 1.0 4.0 0.00 0.81 0.00 77 1016.0
20260904154717 88 337 2.0 4.0 0.00 0.81 0.00 76 1016.1
20260904154222 88 310 1.0 5.0 0.00 0.81 0.00 76 1016.1
20260904153707 88 247 2.0 5.0 0.00 0.81 0.00 76 1016.1
20260904153213 88 320 0.0 4.0 0.00 0.81 0.00 77 1016.1
20260904152718 87 185 1.0 5.0 0.00 0.81 0.00 78 1016.1
20260904152227 88 316 1.0 3.0 0.00 0.81 0.00 79 1016.1
20260904151713 87 213 1.0 4.0 0.00 0.81 0.00 80 1016.1
20260904151218 87 336 2.0 4.0 0.00 0.81 0.00 78 1016.1
20260904150744 87 57 0.0 5.0 0.00 0.81 0.00 79 1016.2
20260904150209 87 109 1.0 6.0 0.00 0.81 0.00 79 1016.1
20260904145714 87 288 3.0 6.0 0.00 0.81 0.00 77 1016.0
20260904145219 87 302 1.0 3.0 0.00 0.81 0.00 77 1016.1
20260904144704 87 260 1.0 4.0 0.00 0.81 0.00 78 1016.1
20260904144209 87 79 0.0 4.0 0.00 0.81 0.00 80 1016.0
20260904143734 87 267 0.0 2.0 0.00 0.81 0.00 80 1016.0
20260904143216 87 194 1.0 4.0 0.00 0.81 0.00 80 1015.9
20260904142720 87 245 2.0 4.0 0.00 0.81 0.00 81 1015.9
20260904142209 87 125 0.0 3.0 0.00 0.81 0.00 81 1015.8
20260904141714 86 104 2.0 3.0 0.00 0.81 0.00 81 1015.7
20260904141219 86 238 0.0 4.0 0.00 0.81 0.00 82 1015.6
20260904140716 85 253 1.0 5.0 0.00 0.81 0.00 83 1015.6
20260904140220 85 334 2.0 5.0 0.00 0.81 0.00 82 1015.5
20260904135724 86 275 1.0 4.0 0.00 0.81 0.00 82 1015.5
20260904135209 86 272 2.0 4.0 0.00 0.81 0.00 82 1015.5
20260904134715 87 156 1.0 3.0 0.00 0.81 0.00 83 1015.5
20260904134218 86 199 1.0 5.0 0.00 0.81 0.00 84 1015.4
20260904133743 85 114 1.0 5.0 0.00 0.81 0.00 84 1015.4
20260904133205 85 197 1.0 5.0 0.00 0.81 0.00 84 1015.4
20260904132730 85 153 2.0 5.0 0.00 0.81 0.00 84 1015.5
20260904132234 85 197 1.0 5.0 0.00 0.81 0.00 85 1015.4
20260904131718 85 160 1.0 4.0 0.00 0.81 0.00 86 1015.4
20260904131358 85 215 2.0 4.0 0.00 0.81 0.00 86 1015.5
20260904130213 85 160 1.0 3.0 0.00 0.81 0.00 86 1015.4
20260904125718 85 144 1.0 3.0 0.00 0.81 0.00 87 1015.5
20260904125222 84 146 0.0 4.0 0.00 0.81 0.00 87 1015.5
20260904124707 84 139 1.0 4.0 0.00 0.81 0.00 87 1015.5
20260904124210 84 159 1.0 2.0 0.00 0.81 0.00 88 1015.5
20260904123735 84 160 0.0 1.0 0.00 0.81 0.00 88 1015.5
20260904123219 84 149 0.0 1.0 0.00 0.81 0.00 89 1015.6
20260904122724 84 138 0.0 2.0 0.00 0.81 0.00 91 1015.6
20260904122208 83 146 0.0 0.0 0.00 0.81 0.00 93 1015.6
20260904121717 82 141 0.0 0.0 0.00 0.81 0.00 94 1015.5
20260904121222 81 141 0.0 0.0 0.00 0.81 0.00 94 1015.4
20260904120719 79 141 0.0 0.0 0.00 0.81 0.00 94 1015.4
20260904120244 79 141 0.0 0.0 0.00 0.81 0.00 94 1015.4
20260904115239 78 141 0.0 0.0 0.00 0.81 0.00 95 1015.2
20260904114723 78 141 0.0 0.0 0.00 0.81 0.00 95 1015.2
20260904114207 77 141 0.0 0.0 0.00 0.81 0.00 95 1015.2
20260904113711 77 141 0.0 0.0 0.00 0.81 0.00 95 1015.1
20260904113215 77 141 0.0 0.0 0.00 0.81 0.00 95 1015.1
20260904112719 78 141 0.0 0.0 0.00 0.81 0.00 95 1015.0
20260904112223 78 141 0.0 0.0 0.00 0.81 0.00 95 1015.0
20260904111708 78 141 0.0 0.0 0.00 0.81 0.00 95 1015.0
20260904111233 78 141 0.0 0.0 0.00 0.81 0.00 95 1014.9
20260904110717 78 141 0.0 0.0 0.00 0.81 0.00 95 1014.9
20260904110207 78 141 0.0 0.0 0.00 0.81 0.00 95 1014.8
20260904105711 78 141 0.0 0.0 0.00 0.81 0.00 95 1014.8
20260904105236 78 141 0.0 0.0 0.00 0.81 0.00 95 1014.7
20260904104719 78 141 0.0 0.0 0.00 0.81 0.00 95 1014.7
20260904104224 78 141 0.0 0.0 0.00 0.81 0.00 95 1014.6
20260904103729 78 141 0.0 0.0 0.00 0.81 0.00 95 1014.6
20260904103211 78 141 0.0 0.0 0.00 0.81 0.00 95 1014.6
20260904102716 78 141 0.0 0.0 0.00 0.81 0.00 95 1014.6
20260904102220 78 141 0.0 0.0 0.00 0.81 0.00 95 1014.5
20260904101705 77 141 0.0 0.0 0.00 0.81 0.00 95 1014.4
20260904101210 77 141 0.0 0.0 0.00 0.81 0.00 95 1014.3
20260904100726 77 141 0.0 0.0 0.00 0.81 0.00 95 1014.3
20260904100209 77 137 0.0 0.0 0.00 0.81 0.00 95 1014.2
20260904095744 77 131 0.0 0.0 0.00 0.81 0.00 95 1014.2
20260904095208 77 131 0.0 0.0 0.00 0.81 0.00 94 1014.1
20260904094713 77 131 0.0 0.0 0.00 0.81 0.00 94 1014.2
20260904094217 77 131 0.0 0.0 0.00 0.81 0.00 94 1014.1
20260904093722 78 131 0.0 0.0 0.00 0.81 0.00 94 1014.2
20260904093208 78 130 0.0 0.0 0.00 0.81 0.00 94 1014.3
20260904092713 78 130 0.0 0.0 0.00 0.81 0.00 94 1014.2
20260904092218 78 130 0.0 0.0 0.00 0.81 0.00 94 1014.3
20260904091722 78 130 0.0 0.0 0.00 0.81 0.00 94 1014.3
20260904091210 78 130 0.0 0.0 0.00 0.81 0.00 94 1014.3
20260904090716 78 129 0.0 0.0 0.00 0.81 0.00 94 1014.2
20260904090221 78 129 0.0 0.0 0.00 0.81 0.00 94 1014.2
20260904085706 78 129 0.0 0.0 0.00 0.81 0.00 95 1014.2
20260904085211 78 130 0.0 0.0 0.00 0.81 0.00 94 1014.2
20260904084716 78 127 0.0 0.0 0.00 0.81 0.00 94 1014.1
20260904084240 78 127 0.0 0.0 0.00 0.81 0.00 94 1014.1
20260904083704 78 126 0.0 0.0 0.00 0.81 0.00 94 1014.1
20260904083228 78 126 0.0 0.0 0.00 0.81 0.00 94 1014.1
20260904082712 78 126 0.0 0.0 0.00 0.81 0.00 94 1014.1
20260904082217 78 127 0.0 0.0 0.00 0.81 0.00 94 1014.0
20260904081722 78 127 0.0 0.0 0.00 0.81 0.00 94 1014.1
20260904081211 78 127 0.0 0.0 0.00 0.81 0.00 94 1014.0
20260904080706 78 124 0.0 0.0 0.00 0.81 0.00 94 1014.0
20260904080209 78 124 0.0 0.0 0.00 0.81 0.00 94 1014.1
20260904075714 78 127 0.0 0.0 0.00 0.81 0.00 94 1014.1
20260904075219 78 125 0.0 0.0 0.00 0.81 0.00 94 1014.2
20260904074724 78 125 0.0 0.0 0.00 0.81 0.00 94 1014.1
20260904074209 78 125 0.0 0.0 0.00 0.81 0.00 94 1014.0
20260904073714 78 125 0.0 0.0 0.00 0.81 0.00 94 1013.9
20260904073219 78 125 0.0 0.0 0.00 0.81 0.00 94 1014.0
20260904072744 78 125 0.0 0.0 0.00 0.81 0.00 94 1013.9
20260904071719 78 125 0.0 0.0 0.00 0.81 0.00 94 1013.9
20260904071224 78 125 0.0 0.0 0.00 0.81 0.00 94 1014.0
20260904070739 78 125 0.0 0.0 0.00 0.81 0.00 94 1014.0
20260904070224 78 125 0.0 0.0 0.00 0.81 0.00 94 1014.0
20260904065729 78 125 0.0 0.0 0.00 0.81 0.00 94 1014.0
20260904065217 78 125 0.0 0.0 0.00 0.81 0.00 94 1014.0
20260904064722 78 125 0.0 0.0 0.00 0.81 0.00 94 1014.1
20260904064207 78 125 0.0 0.0 0.00 0.81 0.00 94 1014.2
20260904063712 78 125 0.0 0.0 0.00 0.81 0.00 94 1014.2
20260904063217 78 125 0.0 0.0 0.00 0.81 0.00 94 1014.3
20260904062722 78 125 0.0 0.0 0.00 0.81 0.00 94 1014.2
20260904062207 78 125 0.0 0.0 0.00 0.81 0.00 94 1014.2
20260904061712 78 125 0.0 0.0 0.00 0.81 0.00 94 1014.2
20260904061217 78 125 0.0 0.0 0.00 0.81 0.00 94 1014.3
20260904060714 78 125 0.0 0.0 0.00 0.81 0.00 94 1014.3
20260904060219 78 125 0.0 0.0 0.00 0.81 0.00 94 1014.4
20260904055708 78 127 0.0 0.0 0.00 0.81 0.00 94 1014.6
20260904055213 78 127 0.0 0.0 0.00 0.81 0.00 94 1014.7
20260904054738 78 127 0.0 0.0 0.00 0.81 0.00 94 1014.7
20260904054222 78 128 0.0 0.0 0.00 0.81 0.00 94 1014.8
20260904053705 78 122 0.0 0.0 0.00 0.81 0.00 94 1014.8
20260904053209 78 124 0.0 0.0 0.00 0.81 0.00 94 1014.9
20260904052735 78 125 0.0 0.0 0.00 0.81 0.00 94 1015.0
20260904052240 78 129 0.0 0.0 0.00 0.81 0.00 94 1015.0
20260904051724 78 126 0.0 0.0 0.00 0.81 0.00 94 1015.0
20260904051208 78 125 0.0 0.0 0.00 0.81 0.00 94 1014.9
20260904050715 78 125 0.0 0.0 0.00 0.81 0.00 94 1015.0
20260904050222 78 125 0.0 0.0 0.00 0.81 0.00 94 1015.0
20260904045713 78 125 0.0 0.0 0.00 0.81 0.00 93 1015.0
20260904045218 78 125 0.0 1.0 0.00 0.81 0.00 93 1015.1
20260904044723 78 125 0.0 1.0 0.00 0.81 0.00 93 1015.0
20260904044228 78 129 0.0 1.0 0.00 0.81 0.00 93 1015.1
20260904043711 78 120 0.0 2.0 0.00 0.81 0.00 93 1015.2
20260904043216 78 126 0.0 0.0 0.00 0.81 0.00 93 1015.2
20260904042720 78 115 0.0 1.0 0.00 0.81 0.00 93 1015.1
20260904042205 78 120 0.0 1.0 0.00 0.81 0.00 93 1015.0
20260904041709 78 122 0.0 2.0 0.00 0.81 0.00 93 1015.0
20260904041214 78 106 0.0 2.0 0.00 0.81 0.00 93 1015.0
20260904040710 78 113 0.0 1.0 0.00 0.81 0.00 93 1014.9